Вернуться в каталог

FENGYUN 1C DEB

АктивенPO
NORAD 29791·DEBRIS·🇨🇳 China

Запущен May 10, 1999 с Taiyuan Satellite Launch Center

Loading…

Ближайшие Пролёты (ближайшие 24 часа)

TLE

СвежийSource: Space-Track

Эпоха: Sep 14, 2026, 01:49 UTC

1 29791U 99025CH  26257.07621100  .00003444  00000-0  69856-3 0  9994
2 29791  99.0291 287.2031 0036846 303.8041  80.3968 14.61543485 28644

Отслеживайте FENGYUN 1C DEB в реальном времени с AllMySat

Download on the App Store